User: anonymous   Login
Location: Oshawa
(43.9000°N, 78.8670°W)
Time: 08:21:16
(UTC-04:00)
Language:

Cosmos 1408 Rocket - Orbit

View from above orbital plane
View from above orbital plane
View from above satellite
View from above satellite

Ground track
Ground track

The orbit data is extracted from the following two-line orbital elements,

1 13553U 82092B   17267.20292013  .00000084  00000-0  70277-5 0  9990
2 13553  82.5690 141.8437 0022969  78.4548  40.7643 14.84136316891729
Epoch (UTC): 24 September 2017 04:52:12
Eccentricity: 0.0022969
inclination: 82.5690°
perigee height: 600 km
apogee height: 632 km
right ascension of ascending node: 141.8437°
argument of perigee: 78.4548°
revolutions per day: 14.84136316
mean anomaly at epoch: 40.7643°
orbit number at epoch: 89172

The dashed part of the orbit path shows where the satellite is in the earth's shadow,  

DLR